Current weather by "City, St" or "zip code"  
 

Current Conditions: Kilo - Harlowton, MT

Overcast and Windy


52.0 F

Last Updated on Nov 28 2021, 4:58 am MST
Humidity: 37%
Wind Speed: W 26.5 mph
Barometer 30.02 in
Dewpoint: 26.4 F
Visibility: 10.00 mi
Precip: --
Heat Index: NA
Wind Chill: 45 F
Current conditions at:

Kilo - Harlowton, MT (K1KM)

Lat: 46.5 Lon: 109.8

Local Radar Image active severe weather and emergency alerts image image weather storm and storm spotter reports image weather observation monitoring service image
Local
Radar
Active
Alerts
Storm Reports Obs
Monitoring

Sign-up For Email & Text Message Weather Alert Notification Services



Advertise Here

Observation History for Kilo - Harlowton, MT


Time Wind
(mph)
Vis
(mi)
Weather Precip (in) Temperature (F) Relative
Humidity
Wind
Chill
(F)
Heat
Index
(F)
Pressure
Air Dwpt altimeter
(in)
sea level
(mb)
Rmks
4:58 am MST W 26.5 10.00 Overcast and Windy -- 52.0 26.4 37% 45 NA 30.02 1017.4
3:58 am MST NW 10.4 10.00 Mostly Cloudy -- 51.0 26.1 38% 47 NA 30.02 1017.4
2:58 am MST W 11.5 10.00 Mostly Cloudy -- 48.0 27.5 45% 43 NA 30.02 1017.4
1:58 am MST N 0.0 10.00 Mostly Cloudy -- 43.0 25.2 50% NA NA 30.01 1017.4
12:58 am MST SW 10.4 10.00 A Few Clouds -- 38.0 22.3 53% 31 NA 30.02 1018.3
11:58 pm MST W 5.8 10.00 Fair -- 42.0 23.4 48% 38 NA 30.04 1018.7
10:58 pm MST W 4.6 10.00 Partly Cloudy -- 37.0 22.3 54% 33 NA 30.07 1020.4
9:58 pm MST N 5.8 10.00 Mostly Cloudy -- 37.0 21.9 54% 32 NA 30.08 1021.0
8:58 pm MST W 12.7 10.00 Overcast -- 42.0 23.0 47% 35 NA 30.10 1021.4
7:58 pm MST W 8.1 10.00 Fair -- 36.0 21.4 55% 30 NA 30.11 1022.4
6:58 pm MST W 9.2 10.00 A Few Clouds -- 40.0 22.5 49% 34 NA 30.11 1021.8
5:58 pm MST W 11.5 10.00 Mostly Cloudy -- 41.0 22.8 49% 34 NA 30.12 1022.1
4:58 pm MST W 13.8 10.00 Fair -- 44.0 23.2 44% 37 NA 30.10 1021.1
3:58 pm MST W 23.0 10.00 Fair and Breezy -- 48.0 23.7 38% 40 NA 30.12 1021.5
1:58 pm MST W 25.3 G 33.4 10.00 Fair and Breezy -- 50.0 24.1 36% 43 NA 30.13 1021.6
12:58 pm MST W 26.5 G 29.9 10.00 A Few Clouds and Windy -- 50.0 25.0 38% 43 NA 30.14 1021.9
11:58 am MST W 21.9 G 28.8 10.00 A Few Clouds and Breezy -- 48.0 27.3 45% 41 NA 30.17 1023.0
10:58 am MST NW 13.8 10.00 A Few Clouds -- 45.0 30.6 58% 39 NA 30.19 1024.0
9:58 am MST NW 15.0 10.00 Partly Cloudy -- 42.0 31.1 65% 34 NA 30.19 1024.3
8:58 am MST W 17.3 10.00 Partly Cloudy -- 40.0 30.9 70% 31 NA 30.19 1024.3
7:58 am MST W 16.1 10.00 Mostly Cloudy -- 39.0 28.8 66% 30 NA 30.19 1024.3
6:58 am MST W 16.1 10.00 Overcast -- 42.0 27.1 56% 34 NA 30.18 1023.3
5:58 am MST W 15.0 10.00 Mostly Cloudy -- 41.0 26.8 57% 33 NA 30.16 1022.9

Regional Weather Observation


Windham, MT (K1CM)

Fair
58.0 F

Lewistown, Lewistown Municipal Airport, MT (KLWT)

Overcast
21.0 F

Geyser, MT (K1BM)

Mostly Cloudy
51.0 F

Delta, MT (K1DM)

Mostly Cloudy and Breezy
NULL F

November, MT (K1NM)

A Few Clouds
52.0 F

Raynesford, MT (K1AM)

Mostly Cloudy and Breezy
55.0 F

Advertise Here


Advertise Here